Simultaneous Nadir Overpasses (SNOs) Predictions

Prediction of SNOs between GOES-17 and LANDSAT-8 Satellite Orbit:

Table of predicted SNOs for the next 14.0 days since TLE Epoch: 4/1/2023
Index Date Time (GOES-17) GOES-17 Lat,Lon LANDSAT-8 Lat,Lon Distance(km) Time Diff (sec)
1 04/01/2023 05:15:35 0.00,-104.74 -0.18,-105.51 88.58 80
2 04/03/2023 05:00:42 0.00,-104.74 0.47,-102.56 248.53 80
3 04/03/2023 17:21:57 -0.00,-104.78 0.62,-107.72 334.27 80
4 04/05/2023 17:12:23 -0.00,-104.78 -0.00,-104.75 3.45 80
5 04/07/2023 17:00:09 -0.00,-104.79 -0.65,-101.79 340.96 80
6 04/08/2023 05:21:31 0.00,-104.76 -0.47,-106.98 252.15 80
7 04/10/2023 05:06:36 0.00,-104.76 0.16,-104.01 85.12 80
8 04/10/2023 17:27:51 -0.00,-104.79 0.91,-109.17 498.14 80
9 04/12/2023 04:54:22 0.00,-104.76 0.82,-101.05 422.17 80
10 04/12/2023 17:15:35 -0.00,-104.78 0.30,-106.20 161.06 80
11 04/14/2023 17:05:59 0.00,-104.78 -0.33,-103.23 176.27 80
